Theta_e
325 323 321 321 320 319 318 318 318 316 314 314 313 309 305 305 304 302 299 297 295 295 293 293 292 291 291 292 292 291 291 291 292 292 293 292 291 295 311 316 319 321 323 325 327 327 326 326 326 325 324 324 324 324 323 323 324 323 323 323 323 320 319 320 320 321 321 321 322 322 322 321 321 322 325 325 325 326 327 327 328 329 330 330 330
324 322 321 320 318 317 317 316 316 315 314 314 311 310 307 303 302 303 302 298 296 294 295 292 292 291 290 291 291 292 290 291 291 292 292 292 292 295 308 314 317 321 323 325 325 327 326 326 325 325 325 324 324 324 322 323 323 323 321 321 321 321 320 319 320 321 321 320 320 320 320 320 321 321 323 323 324 324 324 325 326 327 327 328 328
324 322 319 319 318 317 317 316 315 314 314 314 309 309 305 306 306 304 303 300 299 293 293 292 291 292 291 291 292 291 291 291 292 292 293 293 292 293 297 310 315 318 320 323 324 325 326 326 326 326 325 324 324 324 323 322 323 323 323 321 321 320 320 320 319 320 320 320 319 319 320 320 320 320 320 320 320 321 322 322 324 325 325 326 326
323 321 321 319 317 317 316 315 316 314 313 312 309 306 306 302 301 301 300 298 295 292 291 292 290 291 290 291 290 291 291 290 292 293 293 293 294 294 293 296 304 313 316 319 324 325 324 325 326 325 325 325 329 328 324 323 323 324 324 321 321 321 319 319 319 319 320 320 320 319 319 319 319 319 319 319 319 320 320 321 321 322 322 322 323
322 321 318 317 317 315 314 314 315 314 312 309 308 306 304 302 299 298 297 296 295 293 292 290 290 290 289 291 290 291 290 290 292 292 293 294 294 293 293 294 295 305 309 313 318 322 325 326 325 323 325 325 326 327 326 325 324 325 324 322 322 319 319 318 319 319 319 320 318 319 319 319 319 318 318 318 319 319 319 319 319 319 320 319 320
322 320 319 318 317 316 315 314 313 311 309 309 310 307 306 304 300 300 299 298 297 294 292 292 290 289 289 289 289 291 290 290 290 292 292 294 295 293 293 293 293 295 296 306 312 316 321 323 324 323 323 325 325 326 327 327 325 322 323 323 322 321 320 318 319 318 319 320 319 319 318 319 319 318 318 317 317 317 318 318 318 319 319 318 319
320 320 318 317 316 315 314 314 310 309 310 309 311 308 307 305 300 301 294 294 294 292 292 292 290 291 291 290 290 290 288 290 290 290 291 293 294 294 295 293 292 293 296 293 301 308 315 319 321 322 322 323 324 325 326 326 326 324 322 323 322 322 321 320 319 319 319 319 319 318 318 319 318 317 317 317 316 317 317 317 317 317 318 318 318
317 317 316 314 314 313 312 308 308 308 309 307 308 307 305 303 299 300 297 293 292 291 290 290 289 290 289 288 289 290 290 289 290 291 291 291 293 294 296 295 294 292 298 293 295 296 311 313 317 319 320 320 322 324 326 326 324 324 323 323 323 323 321 321 321 319 319 319 319 318 317 318 318 318 317 317 317 316 316 316 316 316 317 317 317
315 315 315 313 312 313 310 308 307 308 307 306 307 306 304 303 297 297 300 298 292 292 289 289 289 289 288 287 287 289 288 290 290 290 291 290 291 293 295 295 293 299 294 292 292 292 302 311 313 315 315 316 318 322 325 326 325 322 321 321 321 321 319 318 319 319 319 318 318 318 317 316 316 316 316 316 316 316 316 315 315 316 316 316 316
313 313 313 312 311 311 309 308 307 307 307 306 306 302 302 303 301 296 297 298 294 293 291 288 289 289 288 287 288 287 287 288 289 292 290 290 290 292 294 293 293 293 293 292 292 292 292 298 307 308 308 311 316 319 322 324 324 325 322 321 321 320 319 319 320 318 318 318 317 316 316 315 315 315 316 315 314 314 314 315 315 315 315 315 315
312 312 311 311 310 309 308 307 307 307 306 305 302 299 299 300 302 297 294 295 295 293 293 291 289 288 288 287 286 286 287 287 288 289 289 289 290 293 290 291 292 292 292 291 291 291 292 291 290 291 292 308 313 317 319 321 321 323 324 322 321 320 320 320 318 319 318 317 316 316 316 314 314 314 315 314 314 314 314 314 314 314 314 314 315
310 310 309 309 308 307 306 306 305 305 305 303 302 301 301 300 299 298 293 292 291 292 291 291 288 287 287 287 285 285 286 287 287 288 289 289 289 289 290 290 290 289 289 291 291 290 291 291 292 292 292 299 307 311 313 315 316 317 321 324 322 321 320 320 320 319 318 317 316 315 316 315 314 315 315 314 314 313 313 313 314 314 314 314 314
305 306 306 306 306 305 305 304 305 304 304 303 302 300 298 298 296 294 294 293 292 290 291 292 292 290 286 286 287 285 287 288 287 288 289 288 287 288 289 289 288 287 289 288 288 289 290 291 291 292 293 291 295 302 306 309 309 313 317 320 323 322 320 322 321 319 318 317 316 316 315 315 314 313 314 314 313 313 313 313 313 314 314 314 314
300 302 303 304 303 302 301 301 302 302 302 302 300 298 298 297 296 295 294 294 293 291 292 292 290 290 289 285 284 285 287 287 287 288 288 287 288 289 289 289 289 288 287 287 287 287 288 289 288 291 291 291 292 293 294 297 299 308 315 318 321 323 324 323 322 319 319 317 317 316 316 314 314 313 313 313 313 313 312 313 314 313 314 313 314
296 296 298 298 299 300 300 299 299 299 299 298 298 298 299 298 296 297 295 292 292 293 293 292 291 287 287 287 285 284 285 284 286 287 288 287 287 288 289 288 289 288 288 287 287 287 287 287 288 288 289 290 292 291 292 296 297 301 307 312 317 320 323 324 324 320 319 318 315 314 314 313 313 313 313 313 312 312 312 312 313 313 313 313 313
293 293 294 295 295 296 296 296 296 295 296 296 295 294 294 295 295 295 296 294 292 292 292 293 290 291 290 288 285 283 284 284 282 283 285 287 287 288 288 288 288 287 285 287 287 287 288 287 287 287 288 289 290 290 291 291 295 299 300 302 306 313 319 322 324 324 319 319 316 314 312 313 312 312 312 312 312 312 312 312 313 313 313 313 312
290 291 291 292 293 293 294 294 294 294 294 294 294 294 294 294 294 294 295 295 295 293 292 292 291 292 292 285 286 286 284 284 281 283 281 285 285 287 287 287 287 286 286 287 286 287 287 287 287 287 287 288 289 289 290 291 292 293 296 298 300 306 312 317 321 323 322 318 318 316 314 313 313 312 311 311 311 312 312 312 313 312 313 312 312
289 289 290 290 291 292 292 292 292 293 293 293 293 293 293 293 293 294 295 295 294 293 292 292 292 292 291 290 290 288 286 285 285 286 281 283 284 283 285 286 284 286 286 286 286 286 287 287 287 287 288 287 288 288 288 289 290 290 292 294 302 306 310 314 317 321 323 320 319 318 316 314 313 312 311 311 311 311 311 311 312 312 312 312 311
288 288 288 289 290 290 291 291 291 291 291 292 292 291 291 292 293 294 294 294 293 291 291 292 292 291 292 291 289 288 287 287 286 284 286 283 281 282 285 284 284 285 286 286 286 286 286 287 287 287 287 287 287 288 288 289 292 293 297 299 304 306 308 310 313 316 321 322 320 318 316 315 314 312 312 311 311 311 310 311 312 312 311 312 311
287 287 287 288 288 289 289 290 290 290 290 290 290 290 290 291 291 292 292 293 292 292 291 291 290 291 292 291 291 290 287 287 287 286 285 283 285 282 282 284 283 284 285 286 286 286 286 286 287 287 287 287 287 288 288 288 288 289 292 298 302 305 307 309 310 311 314 319 321 318 317 317 315 314 313 311 311 310 310 310 311 312 312 311 311
286 286 286 287 287 287 288 288 288 288 288 289 289 289 289 289 289 289 289 290 292 292 291 290 290 290 290 290 289 289 289 288 287 285 285 284 285 285 285 281 281 283 285 285 286 286 286 287 287 287 287 287 287 287 288 288 288 288 291 297 301 305 308 309 310 311 311 312 316 318 317 316 316 315 313 312 311 311 310 311 311 311 312 312 312
284 285 285 285 286 286 286 286 286 287 287 287 287 288 288 287 287 287 287 288 288 289 290 290 290 290 290 290 288 288 287 287 286 285 285 285 284 285 286 285 284 285 284 285 286 286 286 286 285 286 286 287 287 287 287 288 288 288 290 296 299 302 305 308 310 311 311 312 312 313 315 315 315 315 315 313 312 311 311 310 310 310 311 311 312
283 284 284 284 284 285 285 285 286 286 286 286 286 286 287 286 287 286 286 286 285 285 286 287 288 288 288 289 288 289 288 287 287 287 286 285 285 285 285 284 284 285 284 283 285 286 285 285 285 286 286 287 287 287 287 287 290 291 294 296 298 301 304 306 308 310 310 311 312 312 314 314 313 314 315 314 313 313 312 311 311 311 311 311 311
282 282 282 283 283 283 284 284 284 284 284 285 285 286 286 286 286 285 285 284 284 285 283 285 284 284 285 287 288 288 288 288 288 288 287 286 286 285 286 287 286 284 283 283 282 283 284 285 286 286 287 287 287 287 287 288 288 292 293 295 298 300 303 306 309 309 309 309 311 311 312 313 313 313 312 314 314 313 313 312 311 312 312 311 311
281 281 281 281 282 282 282 282 282 283 283 284 284 284 284 284 285 284 284 284 283 282 283 282 282 282 283 284 284 285 285 287 287 287 287 287 285 284 286 286 284 286 284 280 283 281 283 285 285 286 286 286 287 287 287 287 287 291 294 292 296 298 301 304 307 309 309 308 309 309 308 310 312 311 311 312 312 312 313 313 313 312 312 311 311
280 280 280 281 281 281 281 281 281 282 282 282 283 283 283 283 283 283 283 283 283 282 282 282 281 282 281 281 282 283 283 284 284 285 285 285 284 284 284 285 285 284 284 281 280 283 283 283 285 286 286 286 287 287 286 287 287 291 292 291 292 297 299 302 304 307 308 307 308 307 307 307 309 311 311 312 311 311 311 312 312 313 313 313 312
279 280 280 280 280 280 280 280 280 280 281 281 282 282 282 282 282 282 282 284 283 282 282 281 284 282 282 282 283 283 283 283 283 283 284 284 284 284 284 282 283 284 284 283 282 282 285 282 283 284 285 286 286 286 287 286 288 291 291 290 289 293 297 300 303 305 307 307 307 307 306 306 307 309 310 310 311 310 310 310 310 311 313 313 313
279 279 279 279 279 279 279 279 279 280 280 280 280 281 281 281 281 281 281 283 282 282 282 281 281 281 281 281 281 282 283 283 283 283 283 283 283 283 283 282 281 280 283 283 284 284 282 284 282 283 284 285 286 286 288 288 287 291 291 288 288 290 294 298 301 304 305 307 306 306 306 305 306 307 308 308 308 308 308 309 308 310 310 311 311
279 278 278 278 278 279 278 279 279 279 279 279 279 279 280 280 280 280 280 281 281 281 281 281 281 281 281 281 281 282 283 283 282 282 282 282 282 282 282 283 283 281 280 281 283 283 282 282 283 282 284 285 286 286 286 286 288 289 287 288 288 288 292 296 300 302 304 306 307 306 305 304 304 305 306 306 307 307 307 307 307 308 309 309 310
278 279 277 277 277 278 277 277 278 278 278 278 278 279 279 279 279 279 280 280 280 281 281 281 281 280 281 281 281 282 282 282 282 282 282 282 281 282 282 282 282 281 281 280 281 284 284 281 282 282 281 283 285 286 286 286 289 289 287 287 287 288 292 295 298 300 302 304 305 305 305 304 304 304 304 305 305 306 307 307 307 307 307 308 309
278 277 277 277 277 277 276 276 276 276 276 277 277 278 278 278 278 278 279 279 279 279 280 280 281 281 280 280 281 281 282 282 282 282 282 282 282 281 282 282 282 282 282 281 280 284 284 285 282 282 283 282 283 284 285 285 287 289 287 286 286 289 291 292 294 298 300 302 303 304 304 304 304 303 303 304 304 304 305 305 305 306 306 306 307
277 277 276 276 277 277 277 277 276 276 276 276 277 277 277 277 277 277 278 278 278 278 278 279 280 280 280 280 280 280 281 281 281 281 282 282 282 281 281 281 282 282 282 281 280 281 285 285 286 284 282 283 283 283 283 284 286 289 286 286 286 288 288 288 292 295 298 300 301 303 304 303 303 303 302 302 303 304 303 304 304 305 305 305 306
276 276 276 276 276 276 276 276 276 276 276 276 277 276 276 276 276 276 276 277 277 277 277 278 278 278 278 279 279 280 280 280 281 281 281 282 281 281 281 281 281 281 281 281 280 281 283 284 285 285 284 282 282 282 283 283 283 284 287 286 286 285 286 286 286 290 295 298 300 301 302 302 302 302 302 301 301 302 302 302 302 303 303 304 304
275 275 275 275 275 275 275 275 275 275 276 276 276 276 276 276 276 277 277 276 276 276 276 276 277 278 278 278 278 279 279 280 280 280 281 281 281 281 281 281 281 281 282 281 281 281 280 283 283 285 282 281 283 282 283 283 283 283 283 285 285 285 285 285 285 286 291 295 298 300 301 302 301 301 301 300 301 300 301 301 301 302 303 303 302
275 275 275 275 275 275 275 275 275 275 275 275 275 275 275 275 275 275 276 275 275 275 275 275 276 277 277 277 278 278 280 279 280 280 280 280 281 281 281 281 281 281 282 282 281 280 280 281 283 283 284 282 282 283 282 284 284 284 283 284 284 285 285 285 284 285 289 293 296 298 300 301 301 300 300 300 300 300 300 300 300 301 301 301 301
275 275 275 275 275 274 274 274 274 274 274 274 274 274 274 274 274 275 275 275 275 275 275 275 276 276 276 276 277 277 278 278 278 279 279 280 280 280 281 281 281 281 282 282 282 281 281 280 282 282 284 282 283 282 282 283 283 283 283 284 283 284 284 284 283 283 286 291 293 296 298 299 301 300 299 299 299 299 299 299 299 300 300 300 300
274 274 274 274 274 274 274 274 274 274 274 274 274 274 274 274 274 274 274 274 274 275 275 275 277 276 276 276 276 277 277 277 277 278 278 278 279 280 280 281 281 281 282 281 281 281 281 280 281 282 283 283 283 282 281 281 282 282 282 283 283 283 283 283 283 283 286 289 291 293 296 298 299 299 299 299 299 298 298 298 299 299 299 299 299
274 274 274 274 274 274 274 274 274 274 274 274 274 274 274 274 274 274 274 274 274 274 275 275 275 276 276 276 277 277 277 276 277 277 278 278 279 279 279 280 280 281 281 281 281 281 281 281 281 281 281 281 282 282 282 282 282 282 282 282 282 282 282 281 281 282 283 283 284 287 292 295 298 299 299 298 298 298 298 298 298 298 298 297 297
274 274 274 274 274 274 274 274 274 274 274 274 273 273 273 273 273 273 274 274 274 275 275 276 276 276 276 276 277 277 277 277 277 277 277 278 278 278 279 279 280 280 280 280 280 280 280 280 281 281 281 281 281 281 282 282 283 283 282 281 281 281 281 281 282 282 282 283 285 287 288 291 293 295 297 297 297 298 297 297 297 297 297 296 296
273 273 273 273 273 273 273 273 273 273 273 273 273 273 273 273 274 274 275 275 275 275 275 276 276 276 276 276 276 277 277 277 277 277 277 277 278 278 279 279 279 279 279 280 280 280 280 280 280 280 280 280 280 279 281 280 280 281 282 282 281 282 281 281 282 282 282 281 281 282 286 289 291 293 296 297 297 297 297 296 296 295 294 296 296
272 272 272 272 272 272 272 272 272 272 272 272 272 273 273 274 275 275 275 275 274 274 274 275 275 275 276 276 276 276 277 279 280 281 281 281 279 278 279 280 279 279 279 279 279 279 279 279 279 280 280 280 280 280 278 278 279 281 283 282 282 283 282 281 281 282 282 281 281 281 281 283 284 287 289 291 293 295 294 295 294 294 294 296 296
270 270 270 270 270 270 270 270 271 271 271 271 273 276 277 275 275 274 274 274 274 274 274 274 274 274 275 275 276 278 278 279 279 280 281 281 282 281 279 280 279 279 279 278 278 278 278 278 278 279 278 278 280 280 280 280 281 282 282 281 281 282 281 281 281 281 282 281 280 279 280 282 283 284 286 288 290 291 292 292 292 293 294 296 296
268 269 269 269 269 269 269 269 268 269 269 270 274 275 277 277 275 274 273 273 273 273 273 273 272 273 273 274 274 275 276 276 276 278 279 280 281 281 282 282 282 280 279 279 279 279 278 278 278 279 278 278 279 280 281 281 281 280 281 282 281 282 281 279 279 281 282 282 280 280 280 281 282 282 284 286 287 288 290 290 293 294 294 295 295
267 267 267 267 267 268 268 267 267 267 268 271 273 274 276 276 276 274 273 272 272 272 272 272 272 272 272 273 273 274 274 274 275 275 277 278 279 280 280 281 281 282 283 281 280 279 279 278 278 278 278 278 279 280 280 281 280 280 280 281 281 281 281 280 280 281 282 283 280 279 279 281 281 281 282 284 286 287 288 291 293 294 295 295 295
266 266 266 266 266 266 266 266 265 266 266 270 272 274 275 275 276 275 272 272 271 271 271 271 271 271 271 270 270 271 271 273 272 272 272 272 275 276 277 278 279 280 281 282 283 281 280 280 279 279 279 279 279 280 281 281 281 280 279 280 280 281 281 281 282 282 281 282 281 280 279 281 281 280 280 282 284 285 287 291 293 294 295 295 295
264 264 264 264 264 264 265 264 264 265 265 268 272 273 274 274 275 274 271 271 271 270 270 270 269 269 269 268 268 268 269 269 270 270 270 271 271 272 272 272 273 275 277 279 279 280 280 279 280 279 281 282 280 281 282 283 282 280 280 279 280 280 280 281 283 284 282 282 281 280 279 281 281 280 280 281 283 284 285 288 292 293 294 295 295
263 263 263 262 263 263 263 263 263 263 264 269 272 273 273 274 274 274 271 270 269 269 268 268 268 268 268 268 268 268 268 269 269 271 271 271 271 271 271 272 273 274 275 275 276 277 277 278 278 279 280 282 282 283 283 283 283 283 283 282 281 281 282 283 283 284 282 282 282 281 279 282 282 280 280 281 282 283 284 287 290 292 293 294 294
262 262 262 262 262 262 262 262 262 262 263 269 270 271 272 273 274 270 269 268 267 267 267 268 268 268 268 268 268 268 268 269 271 274 274 272 272 271 272 273 273 274 275 277 279 280 279 280 280 280 280 281 284 283 284 284 284 284 284 284 282 281 281 280 279 281 282 282 282 281 280 282 282 280 281 282 282 282 283 283 288 291 292 293 294
261 261 261 261 261 261 261 261 261 261 262 265 269 271 272 273 271 268 268 267 267 266 266 267 267 268 268 268 268 268 268 268 271 274 275 275 271 271 271 271 272 273 273 275 278 279 280 281 282 283 284 286 287 287 287 287 286 285 283 281 280 281 279 278 279 280 280 282 280 281 281 280 281 280 281 281 281 281 282 282 283 288 291 292 294
260 260 260 260 260 261 260 260 261 260 261 265 269 270 271 272 271 268 267 267 266 266 266 267 268 268 268 271 270 268 268 268 272 274 275 274 271 271 272 272 271 271 272 274 275 276 279 279 280 280 281 282 284 285 287 288 288 287 284 281 281 282 279 279 278 279 281 282 280 282 280 279 282 279 279 278 280 280 281 282 282 283 288 290 293
259 260 260 259 259 259 260 260 263 262 261 263 267 269 270 271 269 268 268 267 266 266 266 266 267 267 267 269 271 271 270 271 275 275 276 274 272 271 271 271 270 269 271 273 273 274 275 275 275 276 277 279 279 278 279 283 285 286 285 284 284 282 280 280 280 279 279 280 282 282 279 279 281 279 280 275 275 278 280 280 281 281 282 285 288
Wind_Speed
5 5 2 6 3 3 4 4 4 4 4 4 5 4 4 4 4 4 3 3 1 1 1 3 3 3 3 3 3 3 2 1 2 2 1 1 1 2 3 3 4 4 5 6 7 7 8 7 7 7 7 7 7 7 5 6 8 3 3 4 5 2 4 4 3 5 2 3 2 2 1 1 2 1 2 2 2 3 3 3 3 4 4 4 4
4 4 5 4 4 3 4 4 4 4 3 5 5 5 5 4 3 4 3 3 2 2 0 3 4 4 3 4 3 4 3 3 3 3 3 2 2 2 4 3 4 4 5 6 7 8 8 9 8 7 7 7 8 7 3 7 6 6 2 5 3 4 3 3 5 5 4 2 3 4 3 3 3 1 2 1 3 1 1 2 2 4 4 3 4
5 6 4 4 4 4 5 4 4 5 5 5 4 5 5 5 5 5 5 4 4 1 1 1 3 4 3 3 5 3 4 3 3 3 3 4 3 3 2 3 2 3 4 5 6 7 8 9 8 7 7 7 9 9 7 5 8 6 7 6 5 4 5 4 3 6 3 4 3 4 6 2 3 2 2 2 3 3 2 1 1 2 3 5 5
5 5 6 6 5 6 5 5 6 5 5 5 5 5 5 3 3 3 3 3 2 1 0 0 2 3 3 4 4 4 4 4 3 4 4 4 4 4 3 2 2 1 2 4 4 4 5 8 10 5 4 6 6 8 9 9 8 8 10 4 6 7 5 4 5 7 4 2 6 7 7 4 1 3 3 4 3 4 1 3 2 3 2 2 3
6 6 3 2 3 4 3 5 5 6 5 4 5 4 4 4 3 3 3 3 2 1 1 0 2 3 2 5 3 4 4 3 4 3 4 4 5 4 4 2 1 1 1 2 4 4 5 5 2 1 2 3 5 6 8 12 11 11 9 8 8 4 5 2 7 7 8 7 6 7 7 6 3 3 5 2 4 3 3 3 3 2 2 2 1
6 5 6 6 6 5 6 6 5 4 4 5 5 5 4 4 4 4 3 4 4 4 3 3 3 3 3 3 4 5 4 4 4 4 3 4 4 4 4 3 2 1 1 2 2 3 4 3 3 2 2 3 4 7 9 12 13 8 11 10 10 8 7 3 7 9 9 8 7 7 7 6 4 5 5 4 3 4 4 3 4 4 4 3 4
5 6 7 7 6 6 6 7 4 4 5 5 5 4 4 5 5 5 2 2 2 2 3 4 4 5 4 2 4 4 4 4 4 4 4 4 5 4 5 5 3 2 1 1 3 3 3 3 3 3 3 3 4 6 9 13 14 12 10 12 10 10 8 9 8 9 9 9 9 7 6 3 3 6 3 5 3 4 5 5 4 5 6 4 4
2 2 4 4 5 6 7 4 5 5 5 4 4 5 5 4 3 5 4 3 2 3 1 4 3 5 3 2 3 3 4 5 5 5 5 5 5 4 5 5 5 4 3 2 1 2 4 4 4 3 3 3 4 5 6 8 11 11 13 14 14 13 11 10 13 8 8 5 7 7 5 6 6 8 6 5 5 6 6 6 4 4 5 5 4
3 4 4 2 2 3 1 4 4 5 5 5 4 4 5 5 3 3 4 5 5 4 3 3 4 4 3 4 3 2 3 4 5 5 4 4 4 5 5 5 4 5 4 3 2 1 3 3 4 4 4 4 4 5 5 5 6 8 7 8 8 8 5 6 10 8 9 6 7 8 6 1 9 5 3 4 5 7 5 5 7 6 6 4 4
7 5 4 4 4 4 5 3 2 1 4 4 3 4 5 6 6 4 5 4 5 4 5 3 3 4 4 4 4 2 3 4 4 4 5 5 5 5 5 5 5 6 5 4 4 3 2 3 4 4 4 5 5 6 6 6 5 5 9 8 8 7 6 9 5 6 4 7 3 2 6 2 3 3 4 5 6 7 7 7 7 7 6 7 6
8 7 6 6 6 6 6 5 4 4 3 1 2 1 1 1 4 4 2 1 3 3 4 3 3 3 3 4 3 4 4 3 3 4 5 5 5 5 3 6 5 5 4 4 5 4 4 3 3 3 3 5 7 7 7 7 7 6 6 10 11 9 9 5 6 11 10 7 5 6 6 2 2 4 7 6 7 9 9 9 8 8 8 7 8
9 8 8 7 6 6 5 4 5 5 6 6 6 5 4 3 2 1 2 0 1 1 2 2 1 1 3 4 4 4 4 4 4 4 4 4 4 4 6 6 5 5 4 5 5 4 4 4 4 5 3 5 7 7 8 9 8 9 7 7 10 11 11 9 9 9 11 10 9 6 10 7 8 11 10 9 10 10 10 9 9 9 8 8 8
9 9 8 8 7 5 5 5 4 5 5 3 3 3 4 3 3 2 1 2 1 2 2 3 1 3 3 4 6 3 4 3 5 5 6 5 3 5 6 6 6 5 5 4 4 4 4 5 5 4 4 4 5 6 7 8 8 9 10 9 9 11 13 10 10 10 11 10 10 10 11 12 10 10 11 11 11 10 10 10 10 10 9 9 7
10 10 9 8 7 7 6 5 5 4 4 4 4 3 4 3 2 2 2 2 2 1 1 3 0 3 4 5 4 5 5 4 5 7 6 5 5 5 6 6 7 6 4 5 5 4 5 5 4 5 4 4 4 4 5 5 6 9 11 11 11 12 12 15 14 13 11 10 12 15 14 13 12 12 12 12 11 11 11 11 11 11 10 10 8
10 9 9 9 8 8 7 6 6 4 5 5 3 4 3 3 4 2 2 2 0 0 2 2 1 2 2 2 4 5 5 3 5 7 7 6 5 6 6 5 8 5 5 5 6 6 5 4 5 5 4 4 5 5 5 5 6 9 10 12 12 13 15 15 16 14 15 13 11 12 13 13 12 12 12 12 12 11 12 11 12 12 11 11 10
10 10 8 9 9 8 7 7 7 5 5 5 4 4 3 2 2 2 2 2 1 1 3 2 1 0 5 2 2 1 8 4 4 6 5 7 6 9 5 7 6 4 3 6 7 5 6 4 6 5 5 5 5 5 6 6 7 9 10 10 10 13 15 16 16 18 19 15 13 13 12 13 13 13 11 11 10 12 12 12 13 13 12 11 11
10 10 9 8 8 8 8 7 8 7 7 7 6 6 4 2 1 0 1 2 3 2 0 3 4 4 2 1 4 2 4 5 5 6 2 2 5 6 5 6 6 4 5 7 5 6 6 5 6 5 6 6 5 5 6 5 6 5 7 9 10 11 13 15 17 18 18 14 15 14 15 14 14 13 12 12 12 12 13 13 13 13 13 12 12
10 10 10 9 9 8 7 8 9 9 8 7 7 8 7 6 4 2 2 1 2 3 3 1 5 5 3 2 3 6 6 3 5 10 3 4 4 2 4 5 4 5 5 7 7 7 5 7 5 7 7 7 6 6 6 6 6 6 7 7 11 11 13 15 16 18 19 18 18 18 16 15 15 14 13 13 13 13 13 13 14 13 13 13 12
10 10 10 10 9 9 8 8 8 8 7 8 9 8 6 6 6 6 4 3 1 2 4 4 1 3 5 6 4 2 1 2 7 4 12 4 1 3 5 4 5 5 7 9 8 7 7 7 8 8 7 6 6 6 6 7 7 7 9 10 12 12 13 13 15 16 19 20 21 19 16 17 16 14 13 14 15 14 13 14 14 14 13 13 14
10 10 10 10 9 9 9 9 8 8 7 7 7 6 7 7 6 5 5 5 3 2 4 4 3 4 1 4 5 4 3 3 3 7 8 11 13 3 3 6 4 6 8 9 9 8 9 8 9 7 7 7 7 7 7 7 6 7 7 11 13 14 13 14 13 14 16 20 23 20 19 19 18 16 15 14 15 15 14 14 14 15 14 13 14
10 10 10 10 9 8 9 9 9 8 7 7 7 6 7 7 8 8 7 6 5 4 3 4 4 4 5 4 3 3 3 4 3 2 6 9 13 10 12 3 3 5 8 9 8 8 9 9 8 8 7 8 8 8 7 7 8 7 7 12 13 15 16 16 15 15 15 16 19 21 22 21 20 18 17 15 15 15 15 15 15 15 15 14 15
9 10 11 10 10 10 9 9 8 7 7 7 7 8 7 6 5 5 5 6 5 5 5 5 4 5 4 4 4 5 4 3 2 4 5 8 13 11 11 12 14 6 5 6 9 10 8 8 7 7 8 9 8 8 7 8 8 7 8 13 12 13 15 15 16 15 15 17 18 17 18 21 20 19 18 17 16 15 15 16 16 17 16 16 16
7 8 9 10 9 9 9 9 8 8 8 8 7 6 6 5 5 5 6 6 5 5 5 4 4 5 5 4 4 4 5 5 6 4 5 6 7 9 7 8 10 14 5 6 7 7 7 6 8 9 10 9 8 7 8 8 8 10 12 12 13 14 15 16 16 14 13 15 16 15 15 15 16 20 19 18 18 17 16 16 16 17 17 17 16
7 7 9 9 8 8 7 7 8 8 8 6 6 6 6 5 6 6 6 4 4 5 4 5 5 4 4 4 4 4 4 5 5 5 6 8 7 11 9 9 10 8 6 8 6 7 7 8 9 10 10 9 9 8 8 9 9 12 10 13 15 15 17 18 19 16 12 11 13 14 15 16 15 16 18 19 19 18 17 17 17 18 17 16 17
9 9 9 9 7 8 8 8 8 7 6 6 6 6 6 6 6 5 5 5 4 4 5 4 3 3 5 5 3 4 5 5 5 5 5 6 6 10 10 7 12 12 5 3 6 2 7 8 7 9 10 9 9 8 9 8 9 10 11 11 16 15 17 18 19 18 15 12 12 13 15 16 15 17 18 18 18 18 18 18 18 19 18 17 18
6 7 6 6 6 5 6 6 6 6 6 6 6 5 6 6 5 6 5 4 3 4 3 3 3 3 2 4 4 5 5 5 5 5 6 6 6 7 9 8 8 12 6 3 2 5 3 4 8 9 8 8 9 9 8 9 10 10 16 12 12 16 17 18 19 18 16 14 13 13 14 14 15 16 18 19 19 18 18 18 19 20 19 19 19
6 4 5 6 6 6 6 6 7 7 6 7 7 6 6 5 5 5 4 5 5 4 4 3 4 4 4 3 4 5 5 5 4 5 5 5 6 7 6 11 12 10 11 6 6 9 11 5 6 7 9 8 8 9 9 9 11 10 14 11 10 15 16 19 20 21 20 16 15 13 13 15 15 15 18 19 20 19 19 19 20 21 20 20 20
5 6 6 6 7 7 6 7 6 7 7 6 7 7 7 7 6 5 6 3 5 6 4 4 5 4 4 4 3 5 5 5 5 5 5 5 6 5 5 7 8 14 10 11 10 11 5 7 3 7 7 9 10 9 11 12 10 12 15 9 9 10 16 19 22 22 22 19 17 16 13 12 12 15 16 16 18 18 18 20 21 22 22 21 21
4 3 5 5 5 5 6 7 7 7 6 6 6 6 6 7 7 8 8 6 5 5 5 5 5 4 4 4 4 6 6 4 4 5 6 5 5 5 5 7 7 9 12 12 15 11 5 6 6 4 6 9 9 8 8 9 9 11 9 9 10 10 12 19 22 22 23 23 22 19 20 18 17 16 17 17 17 17 18 17 17 17 17 17 17
2 3 4 4 4 4 4 5 5 5 6 6 6 7 7 7 6 6 6 6 7 7 6 5 6 4 5 5 5 6 6 5 6 5 5 6 6 6 6 6 6 9 9 10 17 9 10 3 5 4 3 7 7 8 7 9 11 12 9 9 10 11 13 19 21 22 22 23 23 22 20 20 19 19 19 18 18 19 19 19 18 18 18 18 19
7 8 8 7 6 6 4 5 4 4 4 4 4 5 5 7 7 8 7 7 7 8 7 6 7 6 6 6 6 6 6 6 7 6 5 5 6 6 6 6 6 8 9 9 13 15 2 11 4 6 6 5 5 6 6 6 8 10 9 8 10 13 17 13 18 19 22 22 22 21 25 25 22 22 20 19 19 20 20 20 20 20 19 17 17
5 5 6 6 7 8 7 7 7 7 6 4 4 5 4 4 5 6 7 7 8 8 9 7 6 7 8 9 8 7 6 5 7 6 7 6 6 6 6 6 7 7 8 9 12 19 7 11 11 8 5 6 7 7 7 7 7 11 8 9 11 14 11 9 12 20 21 22 22 22 23 25 25 23 23 22 21 22 22 22 22 22 21 21 21
4 5 5 5 6 6 7 7 8 9 9 10 8 7 7 7 6 5 5 5 6 7 7 10 7 6 7 8 10 9 6 6 7 7 7 7 6 6 6 6 7 7 7 9 12 16 12 5 10 9 7 5 7 6 9 8 7 7 9 9 9 9 9 9 10 17 21 22 22 22 23 24 26 23 23 23 23 23 23 23 22 21 22 22 22
3 4 4 4 4 4 5 6 6 6 6 7 8 8 9 11 11 7 8 8 8 8 6 8 8 6 8 9 10 9 6 8 9 8 7 7 7 7 7 7 8 8 7 8 11 12 16 7 8 9 8 4 10 3 7 8 9 7 9 10 8 9 9 9 9 10 18 21 23 23 23 24 25 23 23 23 23 23 23 24 23 23 23 23 22
4 4 4 5 5 5 5 5 5 5 5 6 5 5 6 7 9 10 9 10 10 11 11 11 9 7 8 9 10 8 6 9 9 9 7 8 7 8 10 7 8 9 7 9 10 13 14 12 7 10 9 6 9 9 6 9 8 8 10 10 9 8 9 9 9 8 12 20 23 24 23 24 24 26 25 23 23 23 24 24 24 24 25 25 24
5 4 4 4 4 5 5 6 5 5 6 5 5 4 5 6 8 9 9 9 9 10 10 11 12 11 10 11 10 7 6 9 10 10 8 7 8 9 10 9 8 9 8 8 10 11 11 13 9 8 9 9 10 7 6 7 7 8 8 9 6 9 8 7 9 9 9 17 21 23 24 24 25 26 28 26 24 23 24 24 24 23 23 23 24
4 4 4 3 4 4 6 6 7 6 6 6 6 6 5 5 7 8 8 8 9 10 10 11 10 11 12 12 13 11 8 10 10 9 8 9 9 9 10 10 9 8 8 8 10 10 12 14 13 8 7 9 8 8 5 7 7 8 7 9 8 9 9 7 7 7 9 16 20 22 23 24 25 28 26 26 27 25 25 24 24 24 24 24 24
5 4 5 5 5 7 6 6 6 6 6 5 6 7 7 7 7 8 8 9 9 10 10 11 10 10 10 12 13 12 11 11 12 11 9 10 10 10 11 11 10 9 10 10 9 11 12 14 13 12 7 9 9 9 6 7 8 9 8 8 6 6 7 7 8 7 7 8 9 11 17 20 23 25 24 26 29 25 27 26 25 26 24 24 24
6 7 6 6 6 6 7 7 7 7 7 6 7 7 6 6 8 9 10 10 10 10 10 11 11 11 11 11 12 12 12 12 13 13 12 11 10 12 11 11 11 10 11 11 10 11 12 13 13 11 10 8 8 12 8 6 9 10 11 9 9 6 6 8 10 7 6 8 10 14 13 13 16 15 20 25 28 26 29 27 26 28 25 24 24
6 6 7 8 7 6 7 7 7 7 8 7 6 6 7 8 9 9 10 10 11 11 10 11 11 11 11 11 11 12 13 13 13 13 13 12 11 12 11 10 10 11 11 11 11 11 12 12 13 13 9 10 7 7 6 1 6 9 7 7 11 9 9 9 10 9 7 8 9 9 11 12 14 18 20 21 25 26 28 25 26 26 26 24 24
5 5 6 6 9 9 8 7 8 7 7 8 6 7 10 11 9 11 11 12 12 12 12 11 11 10 10 10 11 11 13 19 23 22 20 19 14 13 13 11 11 11 11 11 11 11 12 12 14 12 11 11 10 9 7 7 10 13 7 7 11 11 6 6 9 9 8 9 9 8 9 10 10 10 10 12 15 23 24 25 20 26 25 25 25
4 5 5 6 7 8 10 10 8 8 8 6 10 19 17 12 12 11 11 11 11 11 12 13 13 11 11 11 13 23 26 26 25 25 26 26 25 19 15 13 12 11 12 12 12 11 11 13 13 13 13 13 12 10 10 10 9 8 8 6 11 9 6 9 9 9 9 9 7 10 10 8 9 11 11 13 13 14 12 15 15 17 22 28 31
6 6 6 7 6 7 8 9 10 9 8 8 19 19 20 22 16 13 12 13 13 13 10 12 11 14 11 11 12 18 21 22 21 26 27 27 26 26 27 27 23 18 14 14 14 12 13 13 13 13 13 15 15 11 10 9 8 9 10 9 10 9 9 9 13 6 9 10 11 9 9 8 10 13 13 14 13 12 13 15 20 22 23 27 32
8 6 7 6 7 7 8 8 8 8 9 13 19 20 21 22 20 15 14 12 13 14 14 13 13 13 14 14 13 11 10 12 13 15 18 23 25 26 27 26 26 28 26 19 16 14 13 13 14 15 14 16 15 12 10 8 8 7 9 10 11 11 11 11 11 13 4 13 9 10 14 8 11 12 13 14 13 12 14 17 22 23 25 26 30
6 6 8 8 8 7 8 10 10 9 8 14 18 21 21 22 22 20 14 14 14 15 15 16 16 15 15 15 15 13 12 20 17 15 16 17 23 29 30 31 31 30 27 29 28 21 15 16 15 17 16 15 16 15 10 10 5 9 7 11 10 10 12 13 13 13 4 12 11 11 14 11 11 12 14 14 13 12 13 18 23 25 28 32 31
6 7 6 7 7 7 8 9 10 10 9 14 20 21 22 23 23 21 14 15 15 16 16 15 15 15 15 15 15 15 13 13 13 14 14 16 15 15 14 14 14 20 26 29 29 31 27 19 17 18 17 14 16 15 14 9 10 10 8 11 9 11 12 15 15 14 5 11 14 11 10 8 11 12 15 14 12 11 13 16 25 27 28 31 32
8 8 8 9 7 6 7 8 10 11 9 18 21 23 24 24 24 21 15 14 14 14 14 14 15 15 15 14 15 16 15 14 13 16 17 17 15 13 14 14 14 14 12 13 14 13 14 15 17 18 19 18 18 17 16 13 13 14 11 11 11 12 12 12 13 11 6 10 10 9 14 11 8 10 14 12 9 11 12 14 23 26 28 29 30
5 6 7 5 8 8 7 8 10 12 10 18 22 23 25 24 26 16 13 14 14 14 14 14 14 14 14 14 14 15 15 16 19 25 22 18 16 16 16 14 13 13 15 15 21 21 19 17 15 16 16 19 21 19 17 14 13 13 13 11 8 8 9 11 13 9 12 8 11 12 11 12 6 12 14 8 7 12 12 10 18 27 28 29 29
7 7 7 7 7 8 9 8 10 12 10 14 21 23 24 26 20 12 13 12 12 14 15 14 14 14 14 14 14 15 17 17 21 26 26 25 18 16 15 17 15 15 13 12 18 25 28 30 32 35 35 35 35 35 35 39 26 16 12 12 14 10 11 13 12 11 12 8 10 12 11 13 7 10 10 5 10 12 10 10 12 20 28 28 32
9 7 7 8 7 6 8 10 8 12 13 15 22 24 25 24 21 14 12 11 13 13 14 14 13 13 15 24 22 18 18 19 25 28 28 24 17 16 15 15 16 14 13 9 10 14 25 29 32 34 34 34 35 35 34 33 36 25 16 17 14 11 15 12 14 13 11 10 9 12 11 14 7 5 5 0 4 6 8 10 10 10 20 24 31
8 7 7 8 8 7 7 9 14 15 13 15 21 23 25 24 19 12 11 10 11 13 13 13 14 15 16 16 25 24 23 24 32 30 29 24 17 14 14 16 17 16 11 11 13 14 12 12 14 15 18 22 22 19 22 34 37 27 19 17 14 15 15 14 15 12 12 12 10 16 13 10 12 5 7 2 6 5 5 6 8 10 10 11 15
Wind_Direction
180 212 215 173 180 164 154 170 160 154 155 161 157 153 145 146 150 157 157 161 176 235 344 319 324 326 305 284 280 279 267 274 270 280 284 288 292 288 306 299 296 296 289 285 274 239 231 238 236 239 242 221 240 253 220 228 239 178 233 230 259 27 309 310 281 285 246 270 221 293 256 264 228 259 136 163 87 57 54 47 52 58 57 63 63
187 189 185 185 159 161 167 167 175 153 156 175 182 163 163 147 144 153 164 169 178 264 13 312 317 306 305 277 269 256 249 228 244 255 270 289 278 283 294 308 302 297 303 301 290 269 238 240 242 239 256 227 246 263 244 254 265 216 203 242 231 240 234 241 270 269 4 274 265 278 281 267 249 211 174 194 195 116 49 56 51 54 56 63 57
189 182 195 171 173 173 191 171 173 188 185 185 163 169 161 174 178 175 178 170 194 162 162 276 305 303 287 284 264 271 262 260 254 262 270 261 268 268 275 290 291 299 318 323 292 270 253 243 247 243 237 234 235 229 243 216 258 245 240 292 290 282 281 270 238 254 65 34 323 292 265 223 254 313 278 268 232 245 307 339 41 83 67 43 47
189 204 186 174 185 193 188 179 198 192 192 176 163 151 155 138 125 135 138 143 141 81 47 227 281 275 293 273 278 262 257 258 247 245 254 269 265 267 268 266 283 309 337 328 333 328 305 271 246 257 269 274 319 284 234 229 230 242 258 257 255 222 251 261 268 248 191 200 258 259 261 242 269 231 243 241 253 241 29 324 334 301 259 43 1
192 179 187 182 177 182 185 210 203 186 179 165 147 134 121 128 125 119 119 123 142 169 111 123 266 271 297 279 290 270 266 272 259 261 259 264 268 269 270 264 271 291 318 353 335 337 347 336 8 10 274 319 299 290 264 239 229 220 219 192 237 241 227 279 334 281 251 250 256 243 243 232 202 242 239 27 318 245 248 233 268 304 314 314 303
187 196 180 178 185 193 198 207 205 182 157 152 162 159 155 159 167 144 168 170 195 212 190 245 255 271 273 273 298 273 290 281 274 266 279 278 279 286 281 278 269 254 273 310 327 331 335 347 350 24 358 328 303 296 265 255 253 229 250 236 234 239 232 261 254 258 253 242 241 234 234 233 233 237 240 231 254 305 257 260 256 259 250 286 286
200 197 192 181 182 199 204 210 174 162 169 178 164 165 162 176 158 169 159 193 210 225 209 231 242 263 268 298 283 294 306 287 301 291 283 280 301 286 292 289 280 273 273 277 306 318 328 335 352 357 6 344 318 303 278 269 264 232 227 248 244 205 201 205 226 255 253 249 247 245 237 209 226 247 228 247 257 261 269 243 244 246 238 234 236
293 207 181 190 190 198 212 171 172 170 173 161 154 175 175 159 181 161 169 222 194 253 209 233 241 255 268 292 286 310 307 304 296 291 281 302 292 290 286 286 290 284 268 265 282 317 338 346 339 344 349 355 327 305 313 295 260 242 231 236 244 231 233 195 198 216 234 252 253 251 245 229 248 241 237 239 242 245 244 246 272 272 261 229 226
40 4 340 328 298 253 166 168 168 173 168 167 181 167 163 164 181 204 187 186 195 226 233 233 244 255 291 300 286 298 295 291 286 279 306 292 283 277 280 280 285 282 284 288 295 302 312 330 332 336 348 344 315 306 307 306 305 254 250 263 264 269 256 235 255 256 237 204 240 242 265 190 25 288 269 258 271 261 266 266 248 247 291 281 241
27 27 43 41 40 32 33 28 20 138 161 171 181 157 176 176 184 198 191 168 198 208 230 227 229 252 271 272 287 305 269 271 272 289 296 285 273 266 266 282 284 275 286 290 275 270 278 310 326 338 330 321 306 297 294 303 304 292 239 235 241 244 219 240 134 62 346 225 186 123 70 11 354 335 250 257 267 276 270 264 260 255 251 250 246
37 41 56 49 45 40 42 35 29 16 14 25 56 78 109 192 201 190 168 171 187 206 214 191 232 272 284 288 309 277 270 260 270 277 275 257 263 271 295 273 267 271 281 274 272 271 269 275 288 296 293 301 297 288 293 298 310 300 276 241 229 231 223 160 177 121 123 126 151 172 138 165 211 263 253 262 265 258 255 250 247 243 235 232 230
31 34 51 50 53 55 74 75 69 53 41 30 17 6 344 325 317 146 150 82 52 124 112 114 52 7 310 300 272 260 266 261 268 262 264 264 268 291 277 268 263 273 274 269 276 276 274 271 269 264 273 282 289 305 305 306 312 308 294 271 246 230 229 178 158 177 160 168 174 213 230 216 245 254 254 252 255 254 252 250 246 241 238 235 232
27 30 34 42 44 41 50 54 77 91 90 71 54 43 33 36 35 18 138 173 255 65 63 111 78 306 299 289 298 282 269 270 267 265 253 248 254 263 263 272 266 267 263 275 274 272 267 266 262 268 269 279 289 294 303 304 309 296 286 278 265 242 233 197 194 190 180 195 214 208 231 240 238 243 244 243 245 249 250 252 251 246 244 243 246
24 23 28 32 36 36 39 36 42 61 89 100 87 100 96 85 56 12 21 350 336 73 196 131 58 240 303 328 325 300 260 246 253 253 251 250 244 239 253 252 262 256 275 277 270 265 265 265 269 268 266 272 271 280 286 291 294 292 289 285 277 263 251 246 207 184 193 196 223 234 232 235 232 233 236 238 239 242 245 248 247 244 242 240 239
28 27 30 22 26 32 28 24 32 37 49 51 71 71 89 97 102 88 360 33 29 138 207 257 299 73 124 354 305 344 334 336 276 261 254 244 235 241 242 246 251 248 253 272 265 265 267 264 267 263 266 261 261 263 267 270 270 282 287 288 284 276 266 258 264 224 190 211 233 236 234 232 235 234 229 232 236 242 243 242 244 242 239 238 237
29 28 28 29 25 24 18 27 26 24 36 36 33 42 52 71 86 105 99 329 352 294 182 228 135 120 300 233 265 33 317 294 313 294 244 236 228 239 234 243 251 266 266 255 257 262 260 268 266 264 263 258 253 254 258 257 265 275 278 283 286 285 276 270 269 266 222 218 236 235 232 237 236 235 236 238 244 241 241 241 238 238 236 236 239
29 30 32 28 27 24 24 17 26 19 28 35 31 21 25 39 63 82 139 203 274 276 196 198 228 237 203 311 313 287 232 277 338 282 345 309 259 247 257 253 264 271 268 265 266 257 261 265 260 266 259 253 253 250 251 254 258 257 266 270 276 278 278 274 270 275 257 222 226 237 231 235 239 238 236 239 240 244 239 239 239 237 237 235 235
30 28 30 30 31 26 27 31 23 16 17 28 31 26 22 21 13 23 324 298 282 314 300 243 230 246 239 246 193 265 303 276 348 294 326 221 270 305 262 258 263 264 261 266 262 261 251 255 251 253 252 252 252 253 248 249 246 251 249 258 261 264 271 273 271 268 274 235 214 213 225 230 236 237 240 242 243 241 241 239 240 237 238 238 236
29 30 27 28 32 31 32 35 34 28 20 28 28 21 14 20 6 17 3 355 16 280 288 295 304 252 245 245 247 214 133 325 273 333 297 318 308 274 270 254 243 243 253 251 251 250 250 242 247 244 249 249 251 249 250 250 249 248 246 250 256 259 261 267 268 270 272 264 235 230 225 228 230 232 236 243 243 240 242 239 241 240 236 236 235
32 30 29 29 28 30 30 33 34 27 28 32 27 12 17 17 24 18 14 17 3 319 305 324 300 305 267 273 270 256 213 249 231 255 284 299 293 282 250 268 254 246 246 256 251 242 252 244 247 247 247 246 241 241 243 244 244 247 250 249 251 255 257 260 266 266 267 275 253 228 224 223 228 228 228 236 241 240 240 243 240 242 239 236 237
32 31 30 30 31 30 30 31 30 22 22 21 19 20 25 22 16 17 16 6 10 348 340 310 324 296 319 305 299 278 261 228 227 187 254 281 282 292 290 308 263 255 258 246 254 246 241 245 239 241 242 246 235 235 236 238 240 241 247 245 248 251 254 257 257 259 261 261 266 240 224 224 228 227 228 229 233 238 240 245 243 239 239 237 236
28 28 27 24 28 28 32 32 29 26 27 20 14 14 12 17 19 23 24 22 9 14 359 331 329 319 312 306 309 313 316 299 225 243 256 223 265 277 293 298 293 265 230 256 252 246 246 248 250 246 246 245 238 231 230 232 235 237 239 242 244 248 252 254 255 255 256 257 251 242 222 223 228 231 228 229 233 232 237 242 246 240 237 237 236
31 31 30 22 23 26 26 25 26 25 24 21 18 12 4 3 2 17 32 30 13 14 8 351 342 336 330 322 301 292 286 290 297 281 264 285 289 272 266 260 264 289 265 253 256 255 242 234 239 245 244 244 244 233 231 232 231 231 234 234 238 241 244 247 249 250 251 253 239 221 213 219 227 230 225 222 230 231 227 233 238 239 235 234 234
33 32 27 19 22 22 22 24 24 19 19 12 14 11 5 8 14 18 16 20 26 24 15 360 355 345 328 326 320 315 304 291 289 282 286 285 282 288 289 297 280 245 273 286 249 249 244 233 232 240 243 243 243 232 234 233 232 226 221 231 234 237 241 242 243 243 240 244 237 219 215 216 216 220 223 224 228 234 234 231 230 235 235 233 233
20 23 16 14 16 18 17 17 14 14 10 13 9 10 9 13 16 15 18 19 10 13 12 343 330 329 311 314 305 301 288 293 298 288 286 282 280 287 285 282 279 289 273 254 283 271 231 235 235 236 241 241 242 236 232 233 235 222 212 231 228 233 235 240 243 242 234 231 232 223 217 214 212 211 216 220 227 230 233 232 231 231 230 231 233
18 22 1 6 17 16 14 12 11 6 7 7 9 6 9 10 8 16 6 350 5 11 5 332 308 287 277 298 310 301 286 283 280 290 284 289 283 277 294 287 277 286 284 275 277 290 279 229 232 236 238 239 242 236 235 234 237 226 221 224 228 229 231 233 236 238 233 224 226 222 217 209 207 209 212 215 219 222 226 233 238 232 229 227 228
24 3 9 14 10 12 11 11 4 3 2 3 2 3 4 359 7 359 358 349 353 356 355 353 333 323 318 296 289 286 275 273 271 266 262 263 268 279 288 295 296 286 291 270 275 222 259 270 234 239 233 239 238 238 233 231 234 226 226 225 231 229 228 230 231 232 232 222 219 221 216 212 210 208 211 213 218 221 224 229 238 237 229 228 226
14 19 12 17 10 7 7 6 1 1 0 360 358 359 354 355 350 358 351 345 346 344 334 331 318 309 290 287 294 282 271 267 261 257 253 252 261 268 264 272 282 294 290 286 281 276 191 245 290 229 231 229 238 233 234 234 237 228 225 222 226 229 226 227 229 230 230 225 215 214 211 210 210 210 210 213 219 221 223 227 233 234 230 228 226
21 24 14 13 12 7 1 355 357 356 353 354 352 352 351 350 347 345 346 338 339 329 324 327 310 308 303 292 274 279 283 273 264 259 256 255 247 247 244 252 260 271 292 296 282 282 277 200 252 284 222 235 239 238 238 233 234 225 222 220 224 230 226 225 228 228 228 229 224 215 218 216 214 213 215 213 212 218 220 226 235 239 236 235 231
31 19 25 12 10 6 4 352 346 348 346 344 346 345 345 345 339 335 330 334 334 329 328 320 310 305 297 301 292 288 285 289 273 260 255 251 252 244 242 242 232 255 268 278 286 277 288 254 238 270 265 245 244 252 232 241 237 231 227 221 225 231 226 225 226 228 228 230 229 225 217 212 211 213 216 215 213 215 218 220 228 236 237 240 234
12 9 7 5 2 359 359 348 343 337 332 332 333 338 341 338 336 333 331 336 332 324 319 325 315 317 308 301 292 281 282 285 287 283 267 256 250 245 247 235 239 237 257 262 275 279 234 284 257 243 253 265 249 258 268 254 249 236 234 229 230 233 233 230 228 229 230 229 231 228 227 224 212 211 212 214 212 214 217 219 223 228 230 232 236
9 6 5 358 354 350 350 348 343 343 343 344 344 338 333 325 316 323 317 327 326 323 316 314 311 311 308 304 294 286 287 286 283 280 278 266 256 255 242 240 245 236 244 254 257 275 267 279 283 285 250 263 256 250 251 258 244 238 234 231 235 238 238 237 230 228 230 229 228 228 226 228 223 213 214 215 215 217 218 220 221 224 226 226 228
4 360 358 351 345 344 340 343 343 340 341 341 347 345 343 335 333 318 313 316 310 305 304 307 310 305 297 291 294 293 290 286 278 278 278 273 269 256 252 245 247 240 233 249 260 273 278 226 274 270 270 251 274 218 246 243 251 243 233 232 232 230 232 229 229 230 230 229 228 227 226 226 227 217 215 216 217 217 218 219 219 220 220 217 220
2 345 342 337 335 329 333 328 329 329 328 332 336 343 338 336 331 334 329 323 315 308 302 297 298 298 295 294 290 289 290 284 284 278 267 273 269 267 259 244 248 250 224 241 257 264 279 273 272 277 278 212 265 188 231 241 243 237 237 233 227 225 229 228 229 230 227 228 227 227 227 224 227 222 215 215 216 217 217 217 217 216 217 216 215
343 344 335 334 330 327 324 319 317 320 321 323 328 329 323 322 320 321 323 322 319 317 317 307 302 298 293 288 284 287 291 286 282 279 276 272 268 263 265 249 250 252 243 230 253 267 271 273 251 274 273 258 238 259 219 243 237 231 236 237 226 224 226 227 230 239 231 231 230 228 227 227 224 227 223 214 214 216 216 217 215 215 216 215 215
330 326 331 319 323 325 318 316 317 315 320 319 317 311 306 310 310 307 308 307 305 304 301 304 308 309 302 297 290 285 281 278 280 283 279 270 267 270 268 265 253 256 250 242 239 256 271 279 264 249 270 266 265 251 253 249 248 244 236 245 228 230 228 220 225 232 234 235 234 231 228 226 224 225 226 224 217 215 217 216 216 214 215 214 214
322 322 318 317 313 317 319 316 316 316 315 314 311 307 304 297 293 294 293 292 290 289 289 290 293 297 297 294 297 299 291 283 279 275 274 272 272 271 269 268 266 261 260 249 254 252 265 269 274 255 250 261 260 265 225 249 255 250 248 242 232 231 232 224 221 227 229 233 235 233 230 228 226 226 223 225 223 221 221 216 216 215 214 213 213
332 329 325 333 331 322 322 315 311 311 312 311 304 304 305 299 290 285 284 283 283 281 283 282 282 281 283 287 289 293 294 289 288 285 278 273 271 267 269 272 270 267 266 264 257 262 262 266 269 277 245 255 269 261 234 222 246 255 252 248 249 234 231 233 226 219 213 218 224 234 236 233 230 227 224 226 227 221 224 220 215 216 214 212 213
332 331 333 330 329 322 318 319 318 318 319 313 311 308 305 296 291 290 289 285 280 280 278 278 277 276 275 278 282 284 285 286 286 287 289 284 277 273 265 268 267 268 269 268 264 262 264 269 270 262 267 248 241 266 253 209 236 240 251 255 252 235 231 228 242 225 217 227 232 234 235 233 232 229 225 225 227 223 224 220 218 219 216 212 213
333 333 332 330 324 324 317 319 318 321 317 317 315 316 310 305 301 296 293 293 292 289 285 281 279 277 276 275 274 277 279 281 283 285 285 286 284 279 275 270 267 266 263 266 267 265 267 268 267 274 259 264 252 241 270 191 256 259 237 246 257 245 224 224 229 230 214 217 225 227 235 243 240 233 228 227 226 226 226 223 220 220 217 212 211
327 327 327 328 325 322 320 318 323 323 320 320 325 324 318 312 309 305 303 299 297 295 291 284 278 275 273 273 273 273 275 279 279 282 283 284 286 286 282 277 272 267 267 264 264 265 264 266 272 270 273 266 256 254 241 226 231 247 243 202 245 251 246 239 237 226 219 215 223 224 225 219 230 233 227 226 224 223 225 223 221 221 218 216 212
326 324 329 330 322 320 322 323 325 325 320 320 321 320 318 316 314 310 303 297 295 294 294 294 291 285 280 280 282 286 288 287 287 286 286 286 284 282 283 284 279 272 265 264 263 260 262 265 264 270 270 265 263 251 249 238 235 244 249 212 240 248 225 244 251 226 209 215 218 227 227 208 212 229 225 228 228 219 221 221 218 215 216 216 217
333 335 332 326 328 325 322 321 323 323 320 320 319 319 317 316 313 307 302 299 297 291 285 288 291 295 290 283 281 284 284 284 284 284 283 283 282 282 282 280 279 277 275 268 261 256 259 259 265 265 263 268 264 257 251 253 237 224 233 229 239 243 235 235 254 241 186 191 219 235 242 204 199 221 222 226 224 217 219 222 218 216 213 214 218
335 335 331 329 328 324 320 318 315 315 315 317 317 315 314 313 311 307 303 300 300 297 297 296 296 297 299 302 301 303 299 299 299 293 287 285 284 283 281 281 280 277 273 272 274 270 260 260 261 259 264 262 269 264 259 252 249 228 226 228 229 232 237 237 246 252 180 183 198 216 241 202 200 219 227 225 222 217 221 220 216 215 213 214 218
326 329 328 327 322 325 320 318 315 312 308 314 313 311 311 311 309 307 299 296 294 294 296 298 298 299 303 302 302 299 301 304 304 302 300 296 290 286 283 281 279 278 278 277 276 275 279 271 263 263 256 264 266 263 257 255 244 236 217 229 227 231 233 238 243 248 182 181 185 215 234 214 188 214 229 227 221 215 222 221 218 217 217 218 218
327 322 322 319 319 320 320 315 309 309 306 311 311 312 311 310 308 305 297 296 293 292 294 296 297 298 299 298 298 297 299 300 296 295 290 286 283 278 272 267 267 270 271 271 269 268 268 269 269 267 266 259 259 266 262 255 255 249 231 234 220 229 230 234 239 243 192 177 192 199 242 220 190 205 227 229 214 214 221 216 216 217 215 216 218
326 321 322 319 316 315 313 310 306 305 306 310 312 312 310 309 307 305 299 297 295 293 293 293 291 292 293 293 293 294 297 298 295 296 296 294 289 277 270 267 263 260 256 256 259 262 263 262 266 269 271 268 266 265 265 255 247 253 248 244 231 230 236 243 249 245 220 199 201 188 238 234 190 206 233 228 203 215 224 215 216 217 218 216 217
307 308 303 304 306 308 307 306 303 299 302 310 309 309 307 307 307 305 301 296 293 291 291 291 292 291 292 290 292 292 293 293 295 295 294 293 291 291 289 283 274 266 263 264 271 272 272 271 266 262 261 263 264 265 263 258 253 253 255 260 258 245 242 242 243 233 233 201 202 202 234 246 165 201 234 218 187 221 218 211 216 218 219 219 218
307 306 301 301 303 303 304 302 300 297 297 305 304 305 306 306 307 299 296 294 293 293 290 291 290 289 289 289 290 293 293 293 293 294 294 293 287 281 275 273 271 270 270 271 276 279 278 275 273 271 270 268 267 265 263 263 260 254 252 252 246 239 240 243 247 238 235 202 204 204 225 244 199 204 233 205 197 222 216 208 211 216 218 219 220
300 295 298 298 293 294 296 297 295 296 296 300 303 304 304 304 301 297 294 286 287 289 291 287 288 288 289 291 291 291 289 287 289 288 287 287 284 282 280 279 278 275 274 275 268 267 269 270 271 272 274 275 276 275 272 266 262 257 247 246 244 237 241 234 245 238 240 220 203 187 214 232 219 201 214 323 216 235 219 216 210 209 218 222 222
285 293 293 291 291 287 282 285 294 295 293 297 300 301 300 300 300 291 287 284 283 286 289 290 288 287 285 282 282 285 285 284 286 288 286 284 281 282 286 285 284 284 290 302 288 285 281 275 269 270 268 268 268 267 268 270 267 265 257 253 248 239 240 236 238 243 248 233 201 179 208 224 226 193 183 148 234 241 211 204 204 203 207 210 220